This demonstration page uses our WeatherBlox Daily Observations layout. Learn more.

Left ArrowRight Arrow

Hourly Observations for March 1, 2020

Temp ( °F °C ) Dew Point ( °F °C ) Humidity (%) Winds ( mph kmh ) Pressure ( in mb ) Visibility ( mi km ) Precip ( " mm )
12:53 am 00:53 Clear 22 -5.6 17 -8.3 82 82 N N/A 30.24 1024 10 16.0934 N/A
1:53 am 01:53 Clear 20 -6.7 17 -8.3 89 89 N N/A 30.24 1024 10 16.0934 N/A
2:53 am 02:53 Clear 20 -6.7 16 -8.9 85 85 N N/A 30.22 1024 10 16.0934 N/A
3:53 am 03:53 Clear 22 -5.6 17 -8.3 82 82 E 3 6 30.22 1023 10 16.0934 N/A
4:53 am 04:53 Clear 22 -5.6 16 -8.9 78 78 E 5 7 30.21 1023 10 16.0934 N/A
5:53 am 05:53 Clear 22 -5.6 17 -8.3 82 82 E 3 6 30.21 1023 10 16.0934 N/A
6:53 am 06:53 Clear 23 -5 17 -8.3 78 78 N N/A 30.21 1023 10 16.0934 N/A
7:53 am 07:53 Sunny 26 -3.3 19 -7.2 75 75 ESE 3 6 30.21 1023 10 16.0934 N/A
8:53 am 08:53 Sunny 30 -1.1 20 -6.7 66 66 SE 3 6 30.21 1023 10 16.0934 N/A
9:53 am 09:53 Sunny 36 2.2 20 -6.7 52 52 SE 3 6 30.19 1022 10 16.0934 N/A
10:53 am 10:53 Sunny 43 6.1 22 -5.6 43 43 S 7 11 30.16 1022 10 16.0934 N/A
11:53 am 11:53 Sunny 48 8.9 24 -4.4 39 39 SSE 5 7 30.13 1020 10 16.0934 N/A
12:53 pm 12:53 Sunny 52 11.1 27 -2.8 38 38 SSE 10 17 30.09 1019 10 16.0934 N/A
1:53 pm 13:53 Sunny 57 13.9 30 -1.1 36 36 S 8 13 30.03 1017 10 16.0934 N/A
2:53 pm 14:53 Sunny 61 16.1 33 0.6 35 35 VRB 6 9 29.99 1016 10 16.0934 N/A
3:53 pm 15:53 Sunny 63 17.2 35 1.7 35 35 VRB 6 9 29.97 1015 10 16.0934 N/A
4:53 pm 16:53 Sunny 62 16.7 34 1.1 35 35 S 12 19 29.95 1014 10 16.0934 N/A
5:53 pm 17:53 Sunny 61 16.1 34 1.1 36 36 SSW 7 11 29.94 1014 10 16.0934 N/A
6:53 pm 18:53 Clear 59 15 34 1.1 39 39 S 7 11 29.94 1014 10 16.0934 N/A
7:53 pm 19:53 Mostly Cloudy 58 14.4 35 1.7 42 42 VRB 6 9 29.93 1014 10 16.0934 N/A
8:53 pm 20:53 Cloudy 58 14.4 35 1.7 42 42 S 5 7 29.93 1014 10 16.0934 N/A
9:53 pm 21:53 Mostly Cloudy 58 14.4 35 1.7 42 42 S 6 9 29.93 1013 10 16.0934 N/A
10:53 pm 22:53 Mostly Clear 58 14.4 35 1.7 42 42 SSW 7 11 29.92 1013 10 16.0934 N/A
11:53 pm 23:53 Cloudy 59 15 36 2.2 42 42 SSW 12 19 29.91 1013 10 16.0934 N/A

Powered by AerisWeather